Regional Weather Roundup
Issued by NWS

Home | Current Version | Previous Version | Graphics & Text | Print | Product List | Glossary On
Versions: 1 2 3 4 5 6 7 8 9 10 11 12 13 14 15 16 17 18 19 20 21 22 23 24 25 26 27 28 29 30 31 32 33 34 35 36 37 38 39 40 41 42 43 44 45 46 47 48 49 50
000
ASUS43 KLOT 251003
RWRIL

ILLINOIS REGIONAL WEATHER ROUNDUP
NATIONAL WEATHER SERVICE CHICAGO/ROMEOVILLE IL
400 AM CST SAT NOV 25 2017

NOTE: "FAIR" INDICATES FEW OR NO CLOUDS BELOW 12,000 FEET WITH NO
SIGNIFICANT WEATHER AND/OR OBSTRUCTIONS TO VISIBILITY.

* THESE STATIONS ARE NOT UNDER NWS QUALITY CONTROL. THEY ALSO MAY NOT
  REPORT WEATHER SUCH AS PRECIPITATION OR FOG.

ILZ001-002-007-009-015-016-024-251100-
NORTHWEST ILLINOIS

CITY           SKY/WX    TMP DP  RH WIND       PRES   REMARKS
MOLINE         PTCLDY    40  33  76 W8        29.88R
STERLING*      PTCLDY    37  33  85 W7        29.84R WCI  32
SAVANNA*       PTCLDY    40  34  79 W7        29.85R
$$

ILZ003-004-008-010-011-017-018-251100-
NORTH CENTRAL ILLINOIS

CITY           SKY/WX    TMP DP  RH WIND       PRES   REMARKS
ROCKFORD       CLEAR     41  35  79 NW13      29.81R
FREEPORT*      PTCLDY    39  34  81 W9        29.82R WCI  33
ROCHELLE*      PTCLDY    41  36  83 NW10      29.81R
DE KALB*       PTCLDY    40  38  91 W10       29.79R
PERU*          CLEAR     39  36  86 W10       29.83R WCI  33
$$

ILZ005-006-012>014-019>023-251100-
NORTHEAST ILLINOIS

CITY           SKY/WX    TMP DP  RH WIND       PRES   REMARKS
CHICAGO-OHARE  CLEAR     46  37  71 W9        29.75R
CHICAGO-MIDWAY NOT AVBL
AURORA         CLEAR     41  38  89 W13       29.79R
LANSING*       CLEAR     47  40  78 NW9G16    29.77R
JOLIET*        CLEAR     44  41  86 W6        29.80R
WAUKEGAN       PTCLDY    43  36  76 W7        29.74R
DUPAGE AIRPORT CLEAR     42  38  85 W8        29.77R
KANKAKEE*      CLEAR     44  40  86 W9        29.81R
WHEELING       CLEAR     46  38  73 NW10      29.76R
MORRIS*        CLEAR     41  38  88 W10       29.79R
ROMEOVILLE*    CLEAR     42  37  83 W7        29.79R
NORTHERLY ISL    N/A     48  37  65 W10         N/A
$$

LMZ740>746-251100-
SOUTHERN LAKE MICHIGAN

STATION/POSITION SKY/WX   TEMP    WIND        PRES    VSBY  WAVE
                          AIR SEA DIR/SP/G                  HT/PER
                          (F)     (DEG/KT/KT) (MB)    (MI)  (FT/S)
SOUTHERN BUOY              47 47  330/ 17/ 21 1005.1          3/ 4
HARRISON CRIB              49     310/ 14/ 17   N/A
BURNHAM HARBOR             48     260/  7/ 15   N/A
CALUMET HARBOR             48     270/  5/ 10 1006.6R
BURNS HARBOR               48     320/ 16/ 24 1007.8R
MICHIGAN CITY              48     300/ 19/ 22   N/A
$$

ILZ025>027-034>036-040-047-049-050-058-095>099-251100-
WEST-CENTRAL ILLINOIS

CITY           SKY/WX    TMP DP  RH WIND       PRES   REMARKS
QUINCY         CLEAR     43  36  76 NW13      29.92R
GALESBURG*     CLEAR     34  32  94 W8        29.90R WCI  27
MACOMB*        CLEAR     37  33  87 NW8       29.92R WCI  30
JACKSONVILLE*  CLEAR     43  35  75 MISG      29.90R
PITTSFIELD*    CLEAR     44  36  72 NW8       29.93R
$$

ILZ028>032-037-038-041>044-048-051>054-059>061-251100-
CENTRAL ILLINOIS

CITY           SKY/WX    TMP DP  RH WIND       PRES   REMARKS
PONTIAC        CLEAR     44  43  97 NW12G18   29.82S
BLOOMINGTON    CLEAR     43  39  86 NW16      29.84R
DECATUR        CLEAR     47  40  76 NW15      29.85R
PEORIA         CLEAR     43  36  76 NW7       29.87R
LACON*         CLEAR     42  36  81 NW8       29.85R
LINCOLN*       CLEAR     45  39  81 NW8       29.86R
SPRINGFIELD    CLEAR     47  39  74 NW13G23   29.88R
TAYLORVILLE    CLEAR     46  39  77 NW9       29.87R
$$

ILZ033-039-045-046-055>057-062-063-251100-
EAST-CENTRAL ILLINOIS

CITY           SKY/WX    TMP DP  RH WIND       PRES   REMARKS
CHAMPAIGN      CLEAR     43  40  89 NW13      29.81R
DANVILLE*      PTCLDY    46  42  86 NW14      29.77R
RANTOUL*       CLEAR     47  44  89 NW14      29.80R
MATTOON        CLOUDY    46  41  82 NW13      29.81R
PARIS*         CLOUDY    44  40  86 NW9       29.80R
$$

ILZ079-100>102-251100-
SOUTHWEST ILLINOIS

CITY           SKY/WX    TMP DP  RH WIND       PRES   REMARKS
ALTON          PTCLDY    49  41  73 NW9G18    29.91R
BELLEVILLE     CLOUDY    52  41  65 NW14      29.88R
CAHOKIA*       PTCLDY    51  39  63 NW12      29.90R
SPARTA*        MOCLDY    54  42  63 N10       29.89R
$$

ILZ064>066-069>071-074>076-080>082-084>086-088>090-092>094-251100-
SOUTH-CENTRAL ILLINOIS

CITY           SKY/WX    TMP DP  RH WIND       PRES   REMARKS
CARBONDALE     CLOUDY    51  37  58 NW5       29.87R
CAIRO*         CLOUDY    50  37  62 SW9       29.87R
EFFINGHAM*     CLOUDY    50  43  78 W12       29.86R
MARION         MOCLDY    49  37  63 CALM      29.88R
MT. VERNON     MOCLDY    53  41  63 VRB3      29.86R
CENTRALIA*     PTCLDY    51  43  73 NW12      29.85R
SALEM*         PTCLDY    51  41  70 NW9       29.86R
METROPOLIS*    MOCLDY    53  37  54 W6        29.88R
$$

ILZ067-068-072-073-078-083-087-091-251100-
SOUTHEAST ILLINOIS

CITY           SKY/WX    TMP DP  RH WIND       PRES   REMARKS
LAWRENCEVILLE  CLOUDY    49  36  61 W7        29.81R
FLORA*         PTCLDY    52  40  64 NW9       29.84R
FAIRFIELD*     CLOUDY    51  38  60 CALM      29.83R
HARRISBURG*    CLOUDY    50  37  61 W6        29.86R
ROBINSON*      PTCLDY    46  37  70 W8        29.82R
CARMI*         PTCLDY    50  37  62 W9        29.83R
$$

ABBREVIATIONS USED IN REMARKS
   TC - TEMPERATURE IN CELSIUS
  WCI - WIND CHILL INDEX
   HX - HEAT INDEX
  VSB - VISIBILITY
$$




USA.gov is the U.S. government's official web portal to all federal, state and local government web resources and services.